TimePST,TemperatureF,Dew PointF,Humidity,Sea Level PressureIn,VisibilityMPH,Wind Direction,Wind SpeedMPH,Gust SpeedMPH,PrecipitationIn,Events,Conditions,WindDirDegrees,DateUTC
12:53 AM,9.0,7.0,92,30.40,7.0,Calm,Calm,-,N/A,,Overcast,0,2013-01-13 08:53:00
1:53 AM,10.9,9.0,92,30.41,3.0,Calm,Calm,-,0.00,Snow,Light Snow,0,2013-01-13 09:53:00
2:01 AM,10.4,8.6,92,30.29,2.5,Calm,Calm,-,0.00,Snow,Light Snow,0,2013-01-13 10:01:00
2:15 AM,10.4,8.6,92,30.30,4.0,Calm,Calm,-,0.00,Snow,Light Snow,0,2013-01-13 10:15:00
2:53 AM,10.0,7.0,87,30.42,9.0,Calm,Calm,-,0.00,,Overcast,0,2013-01-13 10:53:00
3:53 AM,8.1,5.0,87,30.43,10.0,NW,3.5,-,N/A,,Overcast,320,2013-01-13 11:53:00
4:53 AM,10.0,7.0,87,30.44,8.0,Calm,Calm,-,N/A,,Overcast,0,2013-01-13 12:53:00
5:53 AM,12.0,9.0,88,30.45,10.0,Calm,Calm,-,N/A,,Overcast,0,2013-01-13 13:53:00
6:53 AM,10.9,9.0,92,30.50,10.0,WNW,3.5,-,N/A,,Overcast,290,2013-01-13 14:53:00
7:53 AM,12.0,10.0,92,30.52,10.0,WNW,4.6,-,N/A,,Overcast,300,2013-01-13 15:53:00
8:53 AM,12.9,10.9,92,30.52,10.0,NNW,3.5,-,N/A,,Overcast,330,2013-01-13 16:53:00
9:42 AM,15.8,12.2,86,30.37,10.0,Calm,Calm,-,N/A,,Overcast,0,2013-01-13 17:42:00
9:53 AM,15.1,12.0,88,30.51,10.0,NNW,3.5,-,N/A,,Overcast,340,2013-01-13 17:53:00
10:08 AM,15.8,12.2,86,30.37,10.0,North,3.5,-,N/A,,Overcast,10,2013-01-13 18:08:00
10:31 AM,15.8,10.4,79,30.37,10.0,North,5.8,-,N/A,,Scattered Clouds,350,2013-01-13 18:31:00
10:53 AM,18.0,12.0,78,30.50,10.0,North,5.8,-,N/A,,Clear,350,2013-01-13 18:53:00
11:53 AM,21.0,12.0,68,30.48,10.0,Calm,Calm,-,N/A,,Clear,0,2013-01-13 19:53:00
12:53 PM,19.0,14.0,81,30.47,10.0,SSW,3.5,-,N/A,,Clear,210,2013-01-13 20:53:00
1:53 PM,19.9,12.0,71,30.46,10.0,Calm,Calm,-,N/A,,Clear,0,2013-01-13 21:53:00
2:53 PM,16.0,10.0,77,30.47,10.0,South,4.6,-,N/A,,Clear,180,2013-01-13 22:53:00
3:53 PM,14.0,9.0,80,30.48,10.0,South,4.6,-,N/A,,Clear,180,2013-01-13 23:53:00
4:53 PM,15.1,10.9,84,30.48,10.0,South,3.5,-,N/A,,Mostly Cloudy,180,2013-01-14 00:53:00
5:53 PM,14.0,10.0,84,30.48,10.0,Calm,Calm,-,N/A,,Scattered Clouds,0,2013-01-14 01:53:00
6:53 PM,15.1,10.0,80,30.48,10.0,Calm,Calm,-,N/A,,Mostly Cloudy,0,2013-01-14 02:53:00
7:53 PM,14.0,10.9,88,30.49,10.0,Calm,Calm,-,N/A,,Overcast,0,2013-01-14 03:53:00
8:53 PM,16.0,12.9,88,30.49,10.0,Calm,Calm,-,N/A,,Overcast,0,2013-01-14 04:53:00
9:53 PM,15.1,12.0,88,30.49,8.0,Calm,Calm,-,N/A,,Overcast,0,2013-01-14 05:53:00
10:53 PM,15.1,12.0,88,30.48,10.0,Calm,Calm,-,N/A,,Overcast,0,2013-01-14 06:53:00
11:53 PM,16.0,12.0,84,30.47,10.0,Calm,Calm,-,N/A,,Overcast,0,2013-01-14 07:53:00